Torna al catalogo

STARLINK-36212

AttivoComunicazioniVLEO
NORAD 67216·PAYLOAD·🇺🇸 United States

Lanciato Dec 17, 2025 da Vandenberg Space Force Base

Loading…

Prossimi Passaggi (prossime 24 ore)

TLE

AggiornatoSource: CelesTrak SupGP

Epoca: Sep 14, 2026, 21:04 UTC

1 67216C 25304AA  26257.87826389  .00029081  00000+0  24373-2 0  2576
2 67216  70.0013  57.5182 0002661 274.1223   2.1754 14.98313691    14

Traccia STARLINK-36212 in tempo reale con AllMySat

Download on the App Store